GW5288 Weather Reports


Display with metric or nautical units.
time (UTC)temp
F
wind
direction
speed
MPH
gust
MPH
rain 1hr
in
rain 24hr
in
rain mn
in
humidity
%
barometer
mb
20260507064733 76 319 0.0 1.0 0.00 0.00 0.00 97 1013.0
20260507064234 76 162 0.0 0.0 0.00 0.00 0.00 97 1013.0
20260507063733 76 109 0.0 0.0 0.00 0.00 0.00 97 1013.0
20260507063236 76 315 0.0 1.0 0.00 0.00 0.00 97 1013.0
20260507062734 76 128 0.0 0.0 0.00 0.00 0.00 97 1013.0
20260507062234 76 58 0.0 0.0 0.00 0.00 0.00 97 1014.0
20260507061734 76 77 0.0 1.0 0.00 0.00 0.00 97 1013.0
20260507061234 76 86 0.0 0.0 0.00 0.00 0.00 97 1014.0
20260507060733 77 152 0.0 0.0 0.00 0.00 0.00 96 1014.0
20260507060233 77 238 0.0 0.0 0.00 0.00 0.00 97 1014.0
20260507055734 77 220 0.0 0.0 0.00 0.00 0.00 97 1014.0
20260507055237 77 149 0.0 0.0 0.00 0.00 0.00 97 1014.0
20260507054735 77 135 0.0 1.0 0.00 0.00 0.00 97 1014.0
20260507054233 77 224 0.0 0.0 0.00 0.00 0.00 97 1014.0
20260507053733 77 311 0.0 0.0 0.00 0.00 0.00 97 1014.0
20260507053234 77 132 0.0 1.0 0.00 0.00 0.00 97 1014.0
20260507052733 77 68 0.0 1.0 0.00 0.00 0.00 97 1014.0
20260507052233 77 68 0.0 1.0 0.00 0.00 0.00 97 1014.0
20260507051733 77 130 0.0 0.0 0.00 0.00 0.00 97 1015.0
20260507051233 77 40 0.0 1.0 0.00 0.00 0.00 97 1014.0
20260507050734 76 113 0.0 0.0 0.00 0.00 0.00 97 1015.0
20260507050234 76 51 0.0 0.0 0.00 0.00 0.00 97 1015.0
20260507045733 76 125 0.0 0.0 0.00 0.00 1.18 96 1015.0
20260507045234 76 162 0.0 2.0 0.00 0.00 1.18 96 1015.0
20260507044733 76 150 1.0 2.0 0.00 0.00 1.18 96 1015.0
20260507044234 76 152 0.0 0.0 0.00 0.00 1.18 96 1015.0
20260507043735 76 135 0.0 1.0 0.00 0.00 1.18 96 1015.0
20260507043233 77 135 0.0 2.0 0.00 0.00 1.18 95 1015.0
20260507042734 77 138 0.0 1.0 0.00 0.00 1.18 96 1015.0
20260507042233 77 217 0.0 0.0 0.00 0.00 1.18 96 1015.0
20260507041733 77 141 1.0 2.0 0.00 0.00 1.18 96 1015.0
20260507041233 77 280 0.0 1.0 0.00 0.00 1.18 95 1015.0
20260507040733 77 127 0.0 0.0 0.00 0.00 1.18 95 1015.0
20260507040233 77 159 0.0 1.0 0.00 0.00 1.18 95 1015.0
20260507035734 77 289 0.0 1.0 0.00 0.00 1.18 95 1015.0
20260507035234 77 32 0.0 1.0 0.00 0.00 1.18 95 1015.0
20260507034734 77 114 0.0 0.0 0.00 0.00 1.18 95 1015.0
20260507034233 77 197 0.0 0.0 0.00 0.00 1.18 95 1015.0
20260507033733 77 60 0.0 0.0 0.00 0.00 1.18 95 1015.0
20260507033234 77 37 0.0 0.0 0.00 0.00 1.18 95 1015.0
20260507032734 77 249 0.0 1.0 0.00 0.00 1.18 96 1015.0
20260507032234 77 297 0.0 1.0 0.00 0.00 1.18 96 1015.0
20260507031735 77 246 0.0 1.0 0.00 0.00 1.18 96 1015.0
20260507031233 77 298 0.0 2.0 0.00 0.00 1.18 96 1015.0
20260507030734 77 250 0.0 1.0 0.00 0.00 1.18 96 1015.0
20260507030233 77 123 0.0 1.0 0.00 0.00 1.18 96 1015.0
20260507025733 77 132 0.0 0.0 0.00 0.00 1.18 95 1015.0
20260507025234 77 132 0.0 1.0 0.00 0.00 1.18 96 1015.0
20260507024734 77 148 0.0 1.0 0.00 0.00 1.18 95 1015.0
20260507024234 77 283 0.0 0.0 0.00 0.00 1.18 95 1015.0
20260507023739 77 242 0.0 1.0 0.00 0.00 1.18 95 1015.0
20260507023233 77 251 0.0 0.0 0.00 0.00 1.18 95 1015.0
20260507022734 77 135 0.0 1.0 0.00 0.00 1.18 95 1015.0
20260507022233 77 131 0.0 0.0 0.00 0.00 1.18 96 1015.0
20260507021734 77 231 0.0 0.0 0.00 0.00 1.18 95 1015.0
20260507021234 77 98 0.0 0.0 0.00 0.00 1.18 96 1014.0
20260507020733 77 152 0.0 0.0 0.00 0.00 1.18 96 1015.0
20260507020234 77 203 0.0 0.0 0.00 0.00 1.18 95 1014.0
20260507015733 77 150 0.0 3.0 0.00 0.00 1.18 95 1014.0
20260507015233 77 182 2.0 2.0 0.00 0.00 1.18 95 1014.0
20260507014734 77 182 0.0 1.0 0.00 0.00 1.18 95 1014.0
20260507014233 77 132 0.0 1.0 0.00 0.00 1.18 94 1014.0
20260507013739 77 224 0.0 0.0 0.00 0.00 1.18 94 1014.0
20260507013233 77 144 0.0 1.0 0.00 0.00 1.18 94 1014.0
20260507012733 77 143 0.0 2.0 0.00 0.00 1.18 94 1014.0
20260507012233 77 122 1.0 2.0 0.00 0.00 1.18 93 1014.0
20260507011734 77 125 0.0 2.0 0.00 0.00 1.18 93 1013.0
20260507011234 78 148 1.0 2.0 0.00 0.00 1.18 93 1014.0
20260507010733 78 108 0.0 1.0 0.00 0.00 1.18 93 1013.0
20260507010233 78 130 0.0 3.0 0.00 0.00 1.18 92 1013.0
20260507005733 78 141 0.0 2.0 0.00 0.00 1.18 92 1013.0
20260507005234 78 135 0.0 1.0 0.00 0.00 1.18 92 1013.0
20260507004733 79 154 0.0 1.0 0.00 0.00 1.18 92 1013.0
20260507004233 79 164 0.0 0.0 0.00 0.00 1.18 92 1013.0
20260507003734 79 207 0.0 1.0 0.00 0.00 1.18 92 1013.0
20260507003233 79 139 0.0 1.0 0.00 0.00 1.18 92 1012.0
20260507002734 79 132 0.0 1.0 0.00 0.00 1.18 92 1012.0
20260507002234 79 158 0.0 0.0 0.00 0.00 1.18 92 1013.0
20260507001733 79 269 0.0 1.0 0.00 0.00 1.18 92 1012.0
20260507001234 79 234 0.0 1.0 0.00 0.00 1.18 92 1012.0
20260507000734 79 302 0.0 0.0 0.00 0.00 1.18 92 1012.0
20260507000234 79 291 0.0 2.0 0.00 0.00 1.18 92 1012.0
20260506235733 79 181 0.0 0.0 0.00 0.00 1.18 91 1012.0
20260506235234 79 163 0.0 1.0 0.00 0.00 1.18 91 1012.0
20260506234733 79 200 0.0 0.0 0.00 0.00 1.18 91 1012.0
20260506234234 79 200 0.0 0.0 0.00 0.00 1.18 91 1012.0
20260506233733 79 200 0.0 5.0 0.00 0.00 1.18 90 1012.0
20260506233233 79 200 5.0 5.0 0.00 0.00 1.18 90 1012.0
20260506232733 79 200 5.0 5.0 0.00 0.00 1.18 89 1012.0
20260506232234 80 200 5.0 5.0 0.00 0.00 1.18 89 1012.0
20260506231734 80 200 5.0 5.0 0.00 0.00 1.18 89 1012.0
20260506231233 80 200 5.0 5.0 0.00 0.00 1.18 89 1012.0
20260506230733 80 200 5.0 5.0 0.00 0.00 1.18 88 1012.0
20260506230233 81 200 5.0 5.0 0.00 0.00 1.18 87 1012.0
20260506225734 81 200 5.0 5.0 0.00 0.00 1.18 87 1011.0
20260506225233 82 200 5.0 5.0 0.00 0.00 1.18 86 1011.0
20260506224733 82 200 5.0 5.0 0.00 0.00 1.18 85 1011.0
20260506224235 83 200 5.0 5.0 0.00 0.00 1.18 84 1011.0
20260506223733 83 200 5.0 5.0 0.00 0.00 1.18 83 1011.0
20260506223234 83 200 5.0 5.0 0.00 0.00 1.18 83 1011.0
20260506222733 84 200 5.0 5.0 0.00 0.00 1.18 83 1010.0
20260506222234 84 200 5.0 5.0 0.00 0.00 1.18 83 1011.0
20260506221733 84 200 5.0 5.0 0.00 0.00 1.18 83 1010.0
20260506221233 84 200 5.0 5.0 0.00 0.00 1.18 83 1010.0
20260506220733 83 200 5.0 5.0 0.00 0.00 1.18 84 1010.0
20260506220234 83 200 5.0 5.0 0.00 0.00 1.18 84 1010.0
20260506215733 83 200 5.0 5.0 0.00 0.00 1.18 84 1011.0
20260506215234 83 200 5.0 5.0 0.00 0.00 1.18 84 1011.0
20260506214735 83 200 5.0 5.0 0.00 0.00 1.18 84 1011.0
20260506214233 83 200 5.0 5.0 0.00 0.00 1.18 84 1010.0
20260506213235 83 200 5.0 5.0 0.00 0.00 1.18 84 1010.0
20260506212734 83 200 5.0 5.0 0.00 0.00 1.18 84 1010.0
20260506212234 83 200 5.0 5.0 0.00 0.00 1.18 84 1010.0
20260506211733 83 200 5.0 5.0 0.00 0.00 1.18 83 1010.0
20260506211234 83 200 5.0 5.0 0.00 0.00 1.18 83 1010.0
20260506210734 83 200 5.0 5.0 0.00 0.00 1.18 84 1011.0
20260506210234 83 200 5.0 5.0 0.00 0.00 1.18 83 1010.0
20260506205733 83 200 5.0 5.0 0.00 0.00 1.18 83 1011.0
20260506203233 83 200 5.0 5.0 0.00 0.00 1.18 82 1010.0
20260506202733 84 200 5.0 5.0 0.00 0.00 1.18 82 1011.0
20260506202233 84 200 5.0 5.0 0.00 0.00 1.18 82 1011.0
20260506201733 84 200 5.0 5.0 0.00 0.00 1.18 83 1010.0
20260506201234 84 200 5.0 5.0 0.00 0.00 1.18 83 1011.0
20260506200734 83 200 5.0 5.0 0.00 0.00 1.18 83 1011.0
20260506200233 83 200 5.0 5.0 0.00 0.00 1.18 83 1011.0
20260506195733 83 200 5.0 5.0 0.00 0.00 1.18 82 1012.0
20260506195234 83 200 5.0 5.0 0.00 0.00 1.18 82 1011.0
20260506194734 84 200 5.0 5.0 0.00 0.00 1.18 82 1012.0
20260506194233 84 200 5.0 5.0 0.00 0.00 1.18 83 1012.0
20260506193733 83 200 5.0 5.0 0.00 0.00 1.18 83 1012.0
20260506193233 83 200 5.0 5.0 0.00 0.00 1.18 82 1012.0
20260506192734 83 200 5.0 5.0 0.00 0.00 1.18 83 1012.0
20260506192233 84 200 5.0 5.0 0.00 0.00 1.18 83 1012.0
20260506191733 83 200 5.0 5.0 0.00 0.00 1.18 84 1012.0
20260506191233 83 200 5.0 5.0 0.00 0.00 1.18 84 1012.0
20260506190734 83 200 5.0 5.0 0.00 0.00 1.18 84 1013.0
20260506190235 82 200 5.0 5.0 0.00 0.00 1.18 85 1012.0
20260506185733 82 200 5.0 5.0 0.00 0.00 1.18 84 1013.0
20260506185233 83 200 5.0 5.0 0.00 0.00 1.18 84 1013.0
20260506184733 83 200 5.0 5.0 0.00 0.00 1.18 84 1013.0
20260506184233 84 200 5.0 5.0 0.00 0.00 1.18 84 1013.0
20260506183734 84 200 5.0 5.0 0.00 0.00 1.18 85 1012.0
20260506183234 84 200 5.0 5.0 0.00 0.00 1.18 85 1013.0
20260506182733 84 200 5.0 5.0 0.00 0.00 1.18 85 1013.0
20260506182233 85 200 5.0 5.0 0.00 0.00 1.18 87 1013.0
20260506181734 84 200 5.0 5.0 0.00 0.00 1.18 88 1013.0
20260506181233 83 200 5.0 5.0 0.00 0.00 1.18 88 1013.0
20260506180734 83 200 5.0 5.0 0.00 0.00 1.18 88 1013.0
20260506180234 84 200 5.0 5.0 0.00 0.00 1.18 89 1014.0
20260506175733 83 200 5.0 5.0 0.00 0.00 1.18 91 1014.0
20260506175234 82 200 5.0 5.0 0.00 0.00 1.18 93 1014.0
20260506174733 81 200 5.0 5.0 0.00 0.00 1.18 93 1014.0
20260506174234 80 176 4.0 5.0 0.00 0.00 1.18 94 1015.0
20260506173733 79 198 2.0 4.0 0.00 0.00 1.18 94 1015.0
20260506173234 79 208 3.0 7.0 0.00 0.00 1.18 95 1015.0
20260506172733 79 251 2.0 7.0 0.00 0.00 1.18 96 1015.0
20260506172233 79 195 5.0 6.0 0.00 0.00 1.18 96 1015.0
20260506171734 78 215 4.0 6.0 0.00 0.00 1.18 97 1015.0
20260506171240 78 210 6.0 6.0 0.00 0.00 1.18 97 1015.0
20260506170734 77 193 3.0 3.0 0.00 0.00 1.18 98 1015.0
20260506170233 77 286 1.0 3.0 0.00 0.00 1.18 98 1016.0
20260506165733 77 228 2.0 3.0 0.00 0.00 1.18 98 1015.0
20260506165233 76 163 2.0 3.0 0.00 0.00 1.18 98 1016.0
20260506164733 76 217 2.0 3.0 0.00 0.00 1.18 98 1016.0
20260506164233 76 285 1.0 2.0 0.00 0.00 1.18 99 1016.0
20260506163733 75 233 1.0 4.0 0.00 0.00 1.18 99 1016.0
20260506163234 75 167 0.0 1.0 0.00 0.00 1.18 99 1016.0
20260506162733 75 41 0.0 3.0 0.00 0.00 1.18 99 1016.0
20260506162233 75 300 1.0 3.0 0.00 0.00 1.18 99 1016.0
20260506161734 75 269 2.0 4.0 0.00 0.00 1.18 99 1016.0
20260506161233 75 292 1.0 3.0 0.00 0.00 1.18 99 1016.0
20260506160734 74 263 2.0 3.0 0.02 0.00 1.18 99 1017.0
20260506160235 74 318 1.0 3.0 0.02 0.00 1.18 99 1017.0
20260506155737 74 320 2.0 3.0 0.02 0.00 1.17 99 1017.0
20260506155234 74 344 0.0 3.0 0.02 0.00 1.17 99 1017.0
20260506154734 74 297 2.0 2.0 0.05 0.00 1.17 99 1017.0
20260506154234 74 355 3.0 3.0 0.07 0.00 1.17 99 1017.0
20260506153734 74 34 0.0 2.0 0.05 0.00 1.16 99 1017.0
20260506153236 74 319 0.0 3.0 0.02 0.00 1.15 99 1017.0
20260506152734 74 341 0.0 4.0 0.05 0.00 1.15 99 1017.0
20260506152235 74 26 1.0 3.0 0.07 0.00 1.15 99 1017.0
20260506151733 73 306 1.0 3.0 0.09 0.00 1.15 99 1017.0
20260506151234 73 326 0.0 1.0 0.12 0.00 1.14 99 1017.0
20260506150733 73 21 0.0 1.0 0.14 0.00 1.13 99 1018.0
20260506150237 73 13 0.0 1.0 0.21 0.00 1.12 99 1018.0
20260506145737 73 17 0.0 0.0 0.19 0.00 1.10 99 1017.0
20260506145234 73 47 0.0 0.0 0.19 0.00 1.08 99 1018.0
20260506144733 73 312 0.0 0.0 0.19 0.00 1.06 99 1018.0
20260506144234 73 309 0.0 1.0 0.21 0.00 1.05 99 1017.0
20260506143734 73 10 0.0 2.0 0.28 0.00 1.03 99 1017.0
20260506143236 73 331 1.0 1.0 0.33 0.00 1.01 99 1017.0
20260506142733 73 183 1.0 2.0 0.40 0.00 0.98 99 1017.0
20260506142235 73 349 0.0 1.0 0.35 0.00 0.95 99 1017.0
20260506141733 73 37 0.0 1.0 0.24 0.00 0.92 99 1017.0
20260506141233 73 311 0.0 0.0 0.09 0.00 0.89 99 1017.0
20260506140734 73 103 0.0 0.0 0.09 0.00 0.88 99 1017.0
20260506140235 73 103 0.0 1.0 0.07 0.00 0.87 99 1017.0
20260506135733 73 114 0.0 0.0 0.12 0.00 0.86 99 1017.0
20260506135233 73 67 0.0 2.0 0.14 0.00 0.85 99 1017.0
20260506134733 73 113 2.0 4.0 0.19 0.00 0.84 99 1017.0
20260506134233 73 139 0.0 3.0 0.26 0.00 0.83 99 1017.0
20260506133733 73 164 0.0 1.0 0.24 0.00 0.81 99 1017.0
20260506133234 73 125 1.0 2.0 0.28 0.00 0.79 99 1017.0
20260506132733 73 262 0.0 0.0 0.24 0.00 0.76 98 1017.0
20260506132234 73 159 0.0 2.0 0.17 0.00 0.74 98 1017.0
20260506131733 74 148 0.0 2.0 0.24 0.00 0.72 98 1017.0
20260506131234 74 113 0.0 1.0 0.21 0.00 0.71 99 1017.0
20260506130734 74 48 0.0 1.0 0.14 0.00 0.69 98 1017.0
20260506130236 73 42 2.0 2.0 0.14 0.00 0.68 98 1017.0
20260506125733 73 23 5.0 5.0 0.17 0.00 0.66 98 1016.0
20260506125233 73 37 5.0 6.0 0.26 0.00 0.65 98 1017.0
20260506124735 73 53 3.0 4.0 0.40 0.00 0.63 98 1016.0
20260506124234 74 41 4.0 5.0 0.61 0.00 0.61 98 1016.0
20260506123733 74 61 2.0 4.0 0.76 0.00 0.56 97 1016.0
20260506123233 75 18 1.0 5.0 0.90 0.00 0.50 97 1016.0
20260506122734 75 129 5.0 6.0 0.83 0.00 0.43 97 1016.0
20260506122234 75 138 4.0 7.0 0.47 0.00 0.35 98 1016.0
20260506121736 75 111 3.0 5.0 0.14 0.00 0.28 98 1016.0
20260506121233 75 175 5.0 12.0 0.05 0.00 0.27 98 1016.0
20260506120734 75 176 6.0 13.0 0.00 0.00 0.26 98 1015.0
20260506120233 75 136 6.0 10.0 0.00 0.00 0.26 99 1015.0
20260506115733 75 139 3.0 5.0 0.00 0.00 0.26 99 1015.0
20260506115234 75 120 3.0 4.0 0.00 0.00 0.26 99 1014.0
20260506114733 74 128 2.0 3.0 0.00 0.00 0.26 99 1014.0
20260506114233 74 122 2.0 3.0 0.00 0.00 0.26 98 1014.0
20260506113734 75 127 2.0 3.0 0.00 0.00 0.26 99 1014.0
20260506113233 75 120 3.0 3.0 0.00 0.00 0.26 99 1014.0
20260506112733 74 114 0.0 1.0 0.00 0.00 0.26 98 1014.0
20260506112243 75 190 0.0 0.0 0.00 0.00 0.26 98 1013.0
20260506111734 75 197 0.0 0.0 0.00 0.00 0.26 98 1014.0
20260506111234 75 119 0.0 1.0 0.00 0.00 0.26 98 1013.0
20260506110733 75 58 0.0 0.0 0.00 0.00 0.26 98 1014.0
20260506110233 75 295 0.0 1.0 0.00 0.00 0.26 98 1014.0
20260506105733 75 156 0.0 0.0 0.00 0.00 0.26 98 1014.0
20260506105233 75 158 0.0 2.0 0.00 0.00 0.26 98 1014.0
20260506104734 75 131 0.0 2.0 0.00 0.00 0.26 98 1014.0
20260506104234 75 123 0.0 2.0 0.00 0.00 0.26 98 1014.0
20260506103734 75 93 0.0 2.0 0.00 0.00 0.26 99 1014.0
20260506103235 75 119 0.0 1.0 0.00 0.00 0.26 98 1014.0
20260506102737 75 44 0.0 2.0 0.00 0.00 0.26 98 1014.0
20260506102235 75 283 1.0 2.0 0.00 0.00 0.26 98 1014.0
20260506101733 75 159 0.0 1.0 0.00 0.00 0.26 98 1014.0
20260506101234 75 269 0.0 3.0 0.00 0.00 0.26 99 1014.0
20260506100734 75 355 0.0 1.0 0.00 0.00 0.26 99 1013.0
20260506100233 75 245 0.0 1.0 0.00 0.00 0.26 99 1013.0
20260506095733 75 137 0.0 1.0 0.00 0.00 0.26 99 1013.0
20260506095233 75 300 0.0 1.0 0.00 0.00 0.26 99 1013.0
20260506094733 75 285 0.0 0.0 0.00 0.00 0.26 99 1013.0
20260506094233 75 224 1.0 1.0 0.00 0.00 0.26 99 1013.0
20260506093734 74 224 1.0 1.0 0.00 0.00 0.26 98 1013.0
20260506093234 74 221 0.0 2.0 0.00 0.00 0.26 98 1013.0
20260506092734 74 295 0.0 0.0 0.00 0.00 0.26 98 1013.0
20260506092234 75 295 0.0 0.0 0.00 0.00 0.26 98 1013.0
20260506091733 75 295 0.0 0.0 0.00 0.00 0.26 98 1013.0
20260506091233 75 295 0.0 0.0 0.00 0.00 0.26 98 1013.0
20260506090733 74 295 0.0 0.0 0.00 0.00 0.26 98 1013.0
20260506090234 74 295 0.0 0.0 0.00 0.00 0.26 98 1013.0
20260506085733 75 295 0.0 0.0 0.00 0.00 0.26 98 1012.0
20260506085233 75 295 0.0 0.0 0.00 0.00 0.26 98 1013.0
20260506084733 75 295 0.0 0.0 0.00 0.00 0.26 98 1013.0
20260506084234 75 295 0.0 0.0 0.00 0.00 0.26 98 1013.0
20260506083733 75 295 0.0 0.0 0.00 0.00 0.26 97 1013.0
20260506083233 75 295 0.0 0.0 0.00 0.00 0.26 97 1012.0
20260506082733 75 295 0.0 0.0 0.00 0.00 0.26 97 1013.0
20260506082233 75 295 0.0 0.0 0.00 0.00 0.26 97 1013.0
20260506081733 75 269 0.0 2.0 0.00 0.00 0.26 97 1012.0
20260506081234 75 133 2.0 3.0 0.00 0.00 0.26 97 1013.0
20260506080734 75 3 2.0 5.0 0.00 0.00 0.26 98 1013.0
20260506080237 75 345 2.0 4.0 0.00 0.00 0.26 98 1012.0
20260506073234 76 94 5.0 5.0 0.00 0.00 0.01 97 1013.0
20260506072733 76 140 4.0 4.0 0.00 0.00 0.01 97 1013.0
20260506072233 76 29 1.0 4.0 0.00 0.00 0.01 97 1013.0
20260506071735 76 36 3.0 3.0 0.00 0.00 0.01 97 1013.0
20260506071233 76 3 3.0 4.0 0.00 0.00 0.01 97 1013.0
20260506070734 76 16 3.0 4.0 0.00 0.00 0.01 97 1013.0
20260506070234 76 21 2.0 2.0 0.00 0.00 0.01 97 1013.0